Time,TemperatureF,DewpointF,PressureIn,WindDirection,WindDirectionDegrees,WindSpeedMPH,WindSpeedGustMPH,Humidity,HourlyPrecipIn,Conditions,Clouds,dailyrainin,SoftwareType,DateUTC
2013-01-08 00:00:00,24.2,17.7,30.29,ESE,120,0.0,2.7,76,0.00,,CLR,0.00,VWS V14.00,2013-01-08 05:00:00,
2013-01-08 00:02:00,24.2,17.7,30.29,ESE,120,2.5,2.7,76,0.00,,CLR,0.00,VWS V14.00,2013-01-08 05:02:00,
2013-01-08 00:03:00,24.2,17.7,30.29,ESE,120,3.0,3.2,76,0.00,,CLR,0.00,VWS V14.00,2013-01-08 05:03:00,
2013-01-08 00:08:00,23.8,17.4,30.29,ESE,120,3.4,3.8,76,0.00,,CLR,0.00,VWS V14.00,2013-01-08 05:08:00,
2013-01-08 00:13:00,23.6,17.2,30.29,ESE,120,3.0,3.2,76,0.00,,CLR,0.00,VWS V14.00,2013-01-08 05:13:00,
2013-01-08 00:18:00,23.6,17.5,30.29,ESE,120,0.0,3.2,77,0.00,,CLR,0.00,VWS V14.00,2013-01-08 05:18:00,
2013-01-08 00:23:00,23.6,17.5,30.29,ESE,120,0.0,0.0,77,0.00,,CLR,0.00,VWS V14.00,2013-01-08 05:23:00,
2013-01-08 00:28:00,23.4,17.3,30.29,ESE,120,0.0,0.0,77,0.00,,CLR,0.00,VWS V14.00,2013-01-08 05:28:00,
2013-01-08 00:34:00,23.4,17.3,30.29,ESE,120,2.5,2.7,77,0.00,,CLR,0.00,VWS V14.00,2013-01-08 05:34:00,
2013-01-08 00:39:00,23.4,17.3,30.29,ESE,120,0.0,0.0,77,0.00,,CLR,0.00,VWS V14.00,2013-01-08 05:39:00,
2013-01-08 00:44:00,23.1,16.9,30.29,ESE,120,0.0,0.0,77,0.00,,CLR,0.00,VWS V14.00,2013-01-08 05:44:00,
2013-01-08 00:49:00,22.9,16.8,30.29,ESE,120,0.0,0.0,77,0.00,,CLR,0.00,VWS V14.00,2013-01-08 05:49:00,
2013-01-08 00:54:00,23.1,16.9,30.29,ESE,120,2.5,2.7,77,0.00,,CLR,0.00,VWS V14.00,2013-01-08 05:54:00,
2013-01-08 00:59:00,22.9,16.8,30.29,ESE,120,2.5,2.7,77,0.00,,CLR,0.00,VWS V14.00,2013-01-08 05:59:00,
2013-01-08 01:04:00,22.9,16.8,30.27,ESE,120,0.0,0.0,77,0.00,,CLR,0.00,VWS V14.00,2013-01-08 06:04:00,
2013-01-08 01:09:00,22.7,16.9,30.27,ESE,120,0.0,0.0,78,0.00,,CLR,0.00,VWS V14.00,2013-01-08 06:09:00,
2013-01-08 01:14:00,22.9,17.1,30.27,ESE,120,0.0,0.0,78,0.00,,CLR,0.00,VWS V14.00,2013-01-08 06:14:00,
2013-01-08 01:19:00,22.0,16.1,30.27,ESE,120,0.0,0.0,78,0.00,,CLR,0.00,VWS V14.00,2013-01-08 06:19:00,
2013-01-08 01:24:00,21.2,15.1,30.27,ESE,120,2.5,2.7,77,0.00,,CLR,0.00,VWS V14.00,2013-01-08 06:24:00,
2013-01-08 01:29:00,21.6,15.8,30.27,ESE,120,0.0,0.0,78,0.00,,CLR,0.00,VWS V14.00,2013-01-08 06:29:00,
2013-01-08 01:34:00,21.6,16.1,30.29,ESE,120,0.0,0.0,79,0.00,,CLR,0.00,VWS V14.00,2013-01-08 06:34:00,
2013-01-08 01:39:00,21.6,16.1,30.29,ESE,120,0.0,0.0,79,0.00,,CLR,0.00,VWS V14.00,2013-01-08 06:39:00,
2013-01-08 01:44:00,21.8,16.6,30.29,ESE,120,0.0,0.0,80,0.00,,CLR,0.00,VWS V14.00,2013-01-08 06:44:00,
2013-01-08 01:49:00,21.6,16.4,30.29,ESE,120,0.0,0.0,80,0.00,,CLR,0.00,VWS V14.00,2013-01-08 06:49:00,
2013-01-08 01:54:00,21.6,16.4,30.29,ESE,120,0.0,0.0,80,0.00,,CLR,0.00,VWS V14.00,2013-01-08 06:54:00,
2013-01-08 01:59:00,21.8,16.6,30.29,ESE,120,2.5,2.7,80,0.00,,CLR,0.00,VWS V14.00,2013-01-08 06:59:00,
2013-01-08 02:04:00,21.8,16.6,30.29,ESE,120,2.5,2.7,80,0.00,,CLR,0.00,VWS V14.00,2013-01-08 07:04:00,
2013-01-08 02:09:00,21.6,16.4,30.29,ESE,120,0.0,0.0,80,0.00,,CLR,0.00,VWS V14.00,2013-01-08 07:09:00,
2013-01-08 02:14:00,21.6,16.4,30.29,ESE,120,3.0,3.2,80,0.00,,CLR,0.00,VWS V14.00,2013-01-08 07:14:00,
2013-01-08 02:19:00,21.6,16.4,30.29,ESE,120,2.5,2.7,80,0.00,,CLR,0.00,VWS V14.00,2013-01-08 07:19:00,
2013-01-08 02:25:00,21.6,16.7,30.29,ESE,120,2.5,2.7,81,0.00,,CLR,0.00,VWS V14.00,2013-01-08 07:25:00,
2013-01-08 02:29:00,21.6,16.7,30.29,ESE,120,0.0,0.0,81,0.00,,CLR,0.00,VWS V14.00,2013-01-08 07:29:00,
2013-01-08 02:35:00,21.6,16.7,30.29,ESE,120,0.0,0.0,81,0.00,,CLR,0.00,VWS V14.00,2013-01-08 07:35:00,
2013-01-08 02:40:00,21.6,16.7,30.29,ESE,120,0.0,0.0,81,0.00,,CLR,0.00,VWS V14.00,2013-01-08 07:40:00,
2013-01-08 02:45:00,21.4,16.5,30.29,ESE,120,0.0,0.0,81,0.00,,CLR,0.00,VWS V14.00,2013-01-08 07:45:00,
2013-01-08 02:50:00,21.4,16.5,30.29,ESE,120,0.0,0.0,81,0.00,,CLR,0.00,VWS V14.00,2013-01-08 07:50:00,
2013-01-08 02:55:00,21.4,16.2,30.29,ESE,120,0.0,0.0,80,0.00,,CLR,0.00,VWS V14.00,2013-01-08 07:55:00,
2013-01-08 03:00:00,21.2,16.0,30.29,ESE,120,0.0,0.0,80,0.00,,CLR,0.00,VWS V14.00,2013-01-08 08:00:00,
2013-01-08 03:05:00,21.2,16.0,30.29,ESE,120,0.0,0.0,80,0.00,,CLR,0.00,VWS V14.00,2013-01-08 08:05:00,
2013-01-08 03:10:00,21.2,16.3,30.29,ESE,120,0.0,0.0,81,0.00,,CLR,0.00,VWS V14.00,2013-01-08 08:10:00,
2013-01-08 03:15:00,21.2,16.3,30.29,ESE,120,0.0,0.0,81,0.00,,CLR,0.00,VWS V14.00,2013-01-08 08:15:00,
2013-01-08 03:20:00,21.0,16.1,30.29,ESE,120,0.0,0.0,81,0.00,,CLR,0.00,VWS V14.00,2013-01-08 08:20:00,
2013-01-08 03:26:00,20.6,15.8,30.29,ESE,120,0.0,0.0,81,0.00,,CLR,0.00,VWS V14.00,2013-01-08 08:26:00,
2013-01-08 03:31:00,20.6,15.8,30.29,ESE,120,0.0,0.0,81,0.00,,CLR,0.00,VWS V14.00,2013-01-08 08:31:00,
2013-01-08 03:36:00,20.6,15.8,30.29,ESE,120,0.0,0.0,81,0.00,,CLR,0.00,VWS V14.00,2013-01-08 08:36:00,
2013-01-08 03:41:00,20.8,15.9,30.29,ESE,120,0.0,0.0,81,0.00,,CLR,0.00,VWS V14.00,2013-01-08 08:41:00,
2013-01-08 03:46:00,20.6,15.8,30.29,ESE,120,0.0,0.0,81,0.00,,CLR,0.00,VWS V14.00,2013-01-08 08:46:00,
2013-01-08 03:51:00,20.3,15.4,30.29,ESE,120,0.0,0.0,81,0.00,,CLR,0.00,VWS V14.00,2013-01-08 08:51:00,
2013-01-08 03:56:00,20.3,15.4,30.29,ESE,120,0.0,0.0,81,0.00,,CLR,0.00,VWS V14.00,2013-01-08 08:56:00,
2013-01-08 04:01:00,20.1,15.2,30.29,ESE,120,0.0,0.0,81,0.00,,CLR,0.00,VWS V14.00,2013-01-08 09:01:00,
2013-01-08 04:07:00,20.3,15.4,30.29,ESE,120,0.0,0.0,81,0.00,,CLR,0.00,VWS V14.00,2013-01-08 09:07:00,
2013-01-08 04:12:00,20.1,15.2,30.29,ESE,120,2.5,2.7,81,0.00,,CLR,0.00,VWS V14.00,2013-01-08 09:12:00,
2013-01-08 04:17:00,20.1,15.2,30.29,ESE,120,2.5,3.2,81,0.00,,CLR,0.00,VWS V14.00,2013-01-08 09:17:00,
2013-01-08 04:22:00,19.9,15.0,30.29,ESE,120,0.0,0.0,81,0.00,,CLR,0.00,VWS V14.00,2013-01-08 09:22:00,
2013-01-08 04:27:00,19.9,15.0,30.29,ESE,120,0.0,0.0,81,0.00,,CLR,0.00,VWS V14.00,2013-01-08 09:27:00,
2013-01-08 04:32:00,20.1,15.2,30.29,SE,124,2.5,2.7,81,0.00,,CLR,0.00,VWS V14.00,2013-01-08 09:32:00,
2013-01-08 04:37:00,19.9,15.0,30.29,SE,130,0.0,0.0,81,0.00,,CLR,0.00,VWS V14.00,2013-01-08 09:37:00,
2013-01-08 04:42:00,19.7,14.9,30.29,SE,130,0.0,0.0,81,0.00,,CLR,0.00,VWS V14.00,2013-01-08 09:42:00,
2013-01-08 04:47:00,19.9,15.0,30.29,SE,130,2.5,3.2,81,0.00,,CLR,0.00,VWS V14.00,2013-01-08 09:47:00,
2013-01-08 04:52:00,19.7,14.9,30.29,SE,130,0.0,0.0,81,0.00,,CLR,0.00,VWS V14.00,2013-01-08 09:52:00,
2013-01-08 04:57:00,19.5,14.7,30.29,SE,130,0.0,0.0,81,0.00,,CLR,0.00,VWS V14.00,2013-01-08 09:57:00,
2013-01-08 05:02:00,19.5,14.7,30.29,SE,130,0.0,0.0,81,0.00,,CLR,0.00,VWS V14.00,2013-01-08 10:02:00,
2013-01-08 05:07:00,19.7,15.1,30.29,SE,130,0.0,0.0,82,0.00,,CLR,0.00,VWS V14.00,2013-01-08 10:07:00,
2013-01-08 05:12:00,19.9,15.3,30.29,SE,130,0.0,0.0,82,0.00,,CLR,0.00,VWS V14.00,2013-01-08 10:12:00,
2013-01-08 05:17:00,19.9,15.3,30.29,SE,130,3.0,3.2,82,0.00,,CLR,0.00,VWS V14.00,2013-01-08 10:17:00,
2013-01-08 05:22:00,19.5,14.9,30.29,SE,130,2.5,2.7,82,0.00,,CLR,0.00,VWS V14.00,2013-01-08 10:22:00,
2013-01-08 05:27:00,19.4,14.8,30.29,SE,130,2.5,3.2,82,0.00,,CLR,0.00,VWS V14.00,2013-01-08 10:27:00,
2013-01-08 05:33:00,19.4,14.8,30.29,SE,130,0.0,3.2,82,0.00,,CLR,0.00,VWS V14.00,2013-01-08 10:33:00,
2013-01-08 05:38:00,19.0,14.4,30.29,SE,130,3.0,3.8,82,0.00,,CLR,0.00,VWS V14.00,2013-01-08 10:38:00,
2013-01-08 05:43:00,19.0,14.4,30.29,SE,130,0.0,0.0,82,0.00,,CLR,0.00,VWS V14.00,2013-01-08 10:43:00,
2013-01-08 05:48:00,19.0,14.4,30.29,SE,130,0.0,0.0,82,0.00,,CLR,0.00,VWS V14.00,2013-01-08 10:48:00,
2013-01-08 05:53:00,18.8,14.2,30.29,SE,130,0.0,0.0,82,0.00,,CLR,0.00,VWS V14.00,2013-01-08 10:53:00,
2013-01-08 05:58:00,19.0,14.4,30.29,SE,130,0.0,0.0,82,0.00,,CLR,0.00,VWS V14.00,2013-01-08 10:58:00,
2013-01-08 06:03:00,19.0,14.4,30.29,SE,130,0.0,0.0,82,0.00,,CLR,0.00,VWS V14.00,2013-01-08 11:03:00,
2013-01-08 06:08:00,19.0,14.4,30.29,SE,130,0.0,0.0,82,0.00,,CLR,0.00,VWS V14.00,2013-01-08 11:08:00,
2013-01-08 06:13:00,19.0,14.4,30.29,SE,130,2.5,2.7,82,0.00,,CLR,0.00,VWS V14.00,2013-01-08 11:13:00,
2013-01-08 06:18:00,18.8,14.2,30.29,SE,130,2.5,3.8,82,0.00,,CLR,0.00,VWS V14.00,2013-01-08 11:18:00,
2013-01-08 06:23:00,18.8,14.2,30.29,SE,130,2.5,2.7,82,0.00,,CLR,0.00,VWS V14.00,2013-01-08 11:23:00,
2013-01-08 06:28:00,18.2,13.7,30.29,SE,130,0.0,0.0,82,0.00,,CLR,0.00,VWS V14.00,2013-01-08 11:28:00,
2013-01-08 06:33:00,18.6,14.0,30.29,SE,136,2.5,2.7,82,0.00,,CLR,0.00,VWS V14.00,2013-01-08 11:33:00,
2013-01-08 06:39:00,18.1,13.2,30.29,WNW,282,0.0,0.0,81,0.00,,CLR,0.00,VWS V14.00,2013-01-08 11:39:00,
2013-01-08 06:44:00,17.7,12.9,30.29,WNW,282,0.0,0.0,81,0.00,,CLR,0.00,VWS V14.00,2013-01-08 11:44:00,
2013-01-08 06:49:00,17.5,12.4,30.29,WNW,282,0.0,0.0,80,0.00,,CLR,0.00,VWS V14.00,2013-01-08 11:49:00,
2013-01-08 06:54:00,17.7,12.9,30.29,WNW,282,0.0,0.0,81,0.00,,CLR,0.00,VWS V14.00,2013-01-08 11:54:00,
2013-01-08 06:59:00,17.9,13.0,30.29,SW,226,0.0,2.7,81,0.00,,CLR,0.00,VWS V14.00,2013-01-08 11:59:00,
2013-01-08 07:04:00,17.9,13.3,30.29,South,190,0.0,2.7,82,0.00,,CLR,0.00,VWS V14.00,2013-01-08 12:04:00,
2013-01-08 07:09:00,17.9,13.3,30.29,South,190,0.0,0.0,82,0.00,,CLR,0.00,VWS V14.00,2013-01-08 12:09:00,
2013-01-08 07:14:00,18.1,13.5,30.29,South,190,0.0,0.0,82,0.00,,CLR,0.00,VWS V14.00,2013-01-08 12:14:00,
2013-01-08 07:19:00,17.9,13.6,30.29,SE,144,2.5,3.2,83,0.00,,CLR,0.00,VWS V14.00,2013-01-08 12:19:00,
2013-01-08 07:24:00,17.9,13.3,30.29,ESE,112,3.4,3.8,82,0.00,,CLR,0.00,VWS V14.00,2013-01-08 12:24:00,
2013-01-08 07:29:00,17.7,13.1,30.29,ESE,112,2.5,2.7,82,0.00,,CLR,0.00,VWS V14.00,2013-01-08 12:29:00,
2013-01-08 07:34:00,18.1,13.5,30.32,ESE,109,0.0,2.7,82,0.00,,CLR,0.00,VWS V14.00,2013-01-08 12:34:00,
2013-01-08 07:39:00,18.2,13.9,30.32,ESE,109,0.0,0.0,83,0.00,,CLR,0.00,VWS V14.00,2013-01-08 12:39:00,
2013-01-08 07:45:00,18.2,13.9,30.32,ESE,109,0.0,0.0,83,0.00,,CLR,0.00,VWS V14.00,2013-01-08 12:45:00,
2013-01-08 07:50:00,18.1,13.8,30.32,ESE,109,0.0,0.0,83,0.00,,CLR,0.00,VWS V14.00,2013-01-08 12:50:00,
2013-01-08 07:55:00,18.2,13.9,30.32,ESE,109,0.0,0.0,83,0.00,,CLR,0.00,VWS V14.00,2013-01-08 12:55:00,
2013-01-08 08:00:00,17.9,13.6,30.32,ESE,109,0.0,0.0,83,0.00,,CLR,0.00,VWS V14.00,2013-01-08 13:00:00,
2013-01-08 08:05:00,17.9,13.3,30.32,ESE,109,2.5,3.2,82,0.00,,CLR,0.00,VWS V14.00,2013-01-08 13:05:00,
2013-01-08 08:10:00,17.9,13.3,30.32,ESE,109,2.5,2.7,82,0.00,,CLR,0.00,VWS V14.00,2013-01-08 13:10:00,
2013-01-08 08:15:00,18.1,13.5,30.32,ESE,109,0.0,0.0,82,0.00,,CLR,0.00,VWS V14.00,2013-01-08 13:15:00,
2013-01-08 08:20:00,18.1,13.5,30.32,ESE,109,0.0,0.0,82,0.00,,CLR,0.00,VWS V14.00,2013-01-08 13:20:00,
2013-01-08 08:25:00,18.2,13.7,30.32,SSW,195,2.5,2.7,82,0.00,,CLR,0.00,VWS V14.00,2013-01-08 13:25:00,
2013-01-08 08:30:00,18.1,13.5,30.32,SW,232,0.0,0.0,82,0.00,,CLR,0.00,VWS V14.00,2013-01-08 13:30:00,
2013-01-08 08:35:00,17.7,12.9,30.32,SW,232,0.0,0.0,81,0.00,,CLR,0.00,VWS V14.00,2013-01-08 13:35:00,
2013-01-08 08:40:00,17.7,12.9,30.32,SW,232,0.0,0.0,81,0.00,,CLR,0.00,VWS V14.00,2013-01-08 13:40:00,
2013-01-08 08:45:00,17.7,12.9,30.32,SW,232,0.0,0.0,81,0.00,,CLR,0.00,VWS V14.00,2013-01-08 13:45:00,
2013-01-08 08:50:00,18.2,13.7,30.35,SW,232,0.0,0.0,82,0.00,,CLR,0.00,VWS V14.00,2013-01-08 13:50:00,
2013-01-08 08:55:00,18.6,14.0,30.35,SW,232,0.0,0.0,82,0.00,,CLR,0.00,VWS V14.00,2013-01-08 13:55:00,
2013-01-08 09:00:00,18.6,14.0,30.35,WSW,244,0.0,0.0,82,0.00,,CLR,0.00,VWS V14.00,2013-01-08 14:00:00,
2013-01-08 09:06:00,18.8,14.2,30.35,WSW,244,0.0,0.0,82,0.00,,CLR,0.00,VWS V14.00,2013-01-08 14:06:00,
2013-01-08 09:11:00,19.2,14.6,30.35,WSW,244,0.0,0.0,82,0.00,,CLR,0.00,VWS V14.00,2013-01-08 14:11:00,
2013-01-08 09:16:00,19.4,14.8,30.35,WSW,244,0.0,0.0,82,0.00,,CLR,0.00,VWS V14.00,2013-01-08 14:16:00,
2013-01-08 09:21:00,19.9,15.6,30.35,WSW,244,0.0,0.0,83,0.00,,CLR,0.00,VWS V14.00,2013-01-08 14:21:00,
2013-01-08 09:26:00,20.6,16.3,30.35,WSW,244,0.0,0.0,83,0.00,,CLR,0.00,VWS V14.00,2013-01-08 14:26:00,
2013-01-08 09:31:00,21.0,16.7,30.35,West,259,0.0,0.0,83,0.00,,CLR,0.00,VWS V14.00,2013-01-08 14:31:00,
2013-01-08 09:36:00,21.4,17.3,30.32,West,259,0.0,0.0,84,0.00,,CLR,0.00,VWS V14.00,2013-01-08 14:36:00,
2013-01-08 09:41:00,22.1,18.0,30.32,West,259,0.0,0.0,84,0.00,,CLR,0.00,VWS V14.00,2013-01-08 14:41:00,
2013-01-08 09:46:00,22.3,18.5,30.32,West,259,0.0,0.0,85,0.00,,CLR,0.00,VWS V14.00,2013-01-08 14:46:00,
2013-01-08 09:51:00,22.9,18.8,30.32,West,277,3.0,3.2,84,0.00,,CLR,0.00,VWS V14.00,2013-01-08 14:51:00,
2013-01-08 09:56:00,23.4,19.6,30.32,WNW,288,0.0,2.7,85,0.00,,CLR,0.00,VWS V14.00,2013-01-08 14:56:00,
2013-01-08 10:01:00,24.4,20.5,30.32,WNW,288,0.0,0.0,85,0.00,,CLR,0.00,VWS V14.00,2013-01-08 15:01:00,
2013-01-08 10:06:00,24.7,20.6,30.32,WNW,288,0.0,0.0,84,0.00,,CLR,0.00,VWS V14.00,2013-01-08 15:06:00,
2013-01-08 10:11:00,25.1,21.0,30.32,NW,308,3.4,3.8,84,0.00,,CLR,0.00,VWS V14.00,2013-01-08 15:11:00,
2013-01-08 10:16:00,25.7,21.2,30.32,NW,315,3.0,3.8,83,0.00,,CLR,0.00,VWS V14.00,2013-01-08 15:16:00,
2013-01-08 10:21:00,26.0,21.6,30.32,WNW,293,3.9,4.3,83,0.00,,CLR,0.00,VWS V14.00,2013-01-08 15:21:00,
2013-01-08 10:27:00,26.2,21.8,30.32,WNW,298,3.4,3.8,83,0.00,,CLR,0.00,VWS V14.00,2013-01-08 15:27:00,
2013-01-08 10:31:00,26.6,21.8,30.32,WNW,301,3.0,4.3,82,0.00,,CLR,0.00,VWS V14.00,2013-01-08 15:31:00,
2013-01-08 10:37:00,26.8,21.7,30.32,West,268,3.0,3.8,81,0.00,,CLR,0.00,VWS V14.00,2013-01-08 15:37:00,
2013-01-08 10:42:00,27.5,22.5,30.32,West,268,0.0,2.7,81,0.00,,CLR,0.00,VWS V14.00,2013-01-08 15:42:00,
2013-01-08 10:47:00,27.7,22.3,30.32,West,279,3.0,3.2,80,0.00,,CLR,0.00,VWS V14.00,2013-01-08 15:47:00,
2013-01-08 10:52:00,28.1,22.4,30.32,West,279,2.5,2.7,79,0.00,,CLR,0.00,VWS V14.00,2013-01-08 15:52:00,
2013-01-08 10:57:00,28.8,23.1,30.32,West,279,0.0,2.7,79,0.00,,CLR,0.00,VWS V14.00,2013-01-08 15:57:00,
2013-01-08 11:02:00,29.2,23.2,30.32,WNW,298,3.4,4.3,78,0.00,,CLR,0.00,VWS V14.00,2013-01-08 16:02:00,
2013-01-08 11:07:00,29.5,23.5,30.32,WNW,298,0.0,0.0,78,0.00,,CLR,0.00,VWS V14.00,2013-01-08 16:07:00,
2013-01-08 11:12:00,30.3,23.6,30.32,WNW,298,0.0,0.0,76,0.00,,CLR,0.00,VWS V14.00,2013-01-08 16:12:00,
2013-01-08 11:17:00,31.0,24.4,30.32,WNW,298,3.0,3.8,76,0.00,,CLR,0.00,VWS V14.00,2013-01-08 16:17:00,
2013-01-08 11:22:00,31.6,24.6,30.32,West,268,3.4,3.8,75,0.00,,CLR,0.00,VWS V14.00,2013-01-08 16:22:00,
2013-01-08 11:27:00,32.0,25.0,30.32,WNW,291,2.5,3.8,75,0.00,,CLR,0.00,VWS V14.00,2013-01-08 16:27:00,
2013-01-08 11:32:00,32.5,25.2,30.32,WNW,285,2.5,3.2,74,0.00,,CLR,0.00,VWS V14.00,2013-01-08 16:32:00,
2013-01-08 11:37:00,33.1,25.4,30.32,West,279,3.9,4.3,73,0.00,,CLR,0.00,VWS V14.00,2013-01-08 16:37:00,
2013-01-08 11:42:00,33.1,25.0,30.32,WNW,283,3.0,4.3,72,0.00,,CLR,0.00,VWS V14.00,2013-01-08 16:42:00,
2013-01-08 11:47:00,33.3,24.9,30.32,West,279,3.9,4.8,71,0.00,,CLR,0.00,VWS V14.00,2013-01-08 16:47:00,
2013-01-08 11:52:00,33.4,24.7,30.29,WNW,288,3.9,4.3,70,0.00,,CLR,0.00,VWS V14.00,2013-01-08 16:52:00,
2013-01-08 11:57:00,34.0,24.9,30.29,NW,308,3.0,4.3,69,0.00,,CLR,0.00,VWS V14.00,2013-01-08 16:57:00,
2013-01-08 12:02:00,34.6,25.1,30.29,WNW,299,3.0,3.2,68,0.00,,CLR,0.00,VWS V14.00,2013-01-08 17:02:00,
2013-01-08 12:07:00,35.1,25.6,30.29,WNW,287,0.0,3.2,68,0.00,,CLR,0.00,VWS V14.00,2013-01-08 17:07:00,
2013-01-08 12:13:00,35.3,25.5,30.29,WNW,286,3.0,3.2,67,0.00,,CLR,0.00,VWS V14.00,2013-01-08 17:13:00,
2013-01-08 12:18:00,36.0,26.2,30.29,WSW,249,3.0,3.2,67,0.00,,CLR,0.00,VWS V14.00,2013-01-08 17:18:00,
2013-01-08 12:23:00,36.8,26.5,30.29,WSW,251,3.0,3.2,66,0.00,,CLR,0.00,VWS V14.00,2013-01-08 17:23:00,
2013-01-08 12:28:00,37.7,27.0,30.29,SW,232,3.0,4.3,65,0.00,,CLR,0.00,VWS V14.00,2013-01-08 17:28:00,
2013-01-08 12:33:00,38.1,26.6,30.29,WSW,257,3.4,4.8,63,0.00,,CLR,0.00,VWS V14.00,2013-01-08 17:33:00,
2013-01-08 12:38:00,38.6,26.0,30.29,WSW,237,4.4,5.9,60,0.00,,CLR,0.00,VWS V14.00,2013-01-08 17:38:00,
2013-01-08 12:43:00,38.8,25.7,30.29,West,278,3.0,3.8,59,0.00,,CLR,0.00,VWS V14.00,2013-01-08 17:43:00,
2013-01-08 12:48:00,38.1,25.0,30.29,NW,311,4.4,4.8,59,0.00,,CLR,0.00,VWS V14.00,2013-01-08 17:48:00,
2013-01-08 12:53:00,38.6,25.6,30.29,West,274,3.4,4.3,59,0.00,,CLR,0.00,VWS V14.00,2013-01-08 17:53:00,
2013-01-08 12:58:00,38.6,25.6,30.29,WNW,299,4.4,5.4,59,0.00,,CLR,0.00,VWS V14.00,2013-01-08 17:58:00,
2013-01-08 13:03:00,39.2,26.1,30.27,West,265,2.5,4.3,59,0.00,,CLR,0.00,VWS V14.00,2013-01-08 18:03:00,
2013-01-08 13:08:00,39.2,25.2,30.27,WNW,297,2.5,3.2,57,0.00,,CLR,0.00,VWS V14.00,2013-01-08 18:08:00,
2013-01-08 13:13:00,39.8,24.9,30.27,West,278,3.0,3.2,55,0.00,,CLR,0.00,VWS V14.00,2013-01-08 18:13:00,
2013-01-08 13:18:00,40.9,26.0,30.27,WSW,254,3.4,4.8,55,0.00,,CLR,0.00,VWS V14.00,2013-01-08 18:18:00,
2013-01-08 13:24:00,41.2,25.4,30.27,SSW,204,3.4,3.8,53,0.00,,CLR,0.00,VWS V14.00,2013-01-08 18:24:00,
2013-01-08 13:29:00,41.8,25.0,30.27,West,265,2.5,3.2,51,0.00,,CLR,0.00,VWS V14.00,2013-01-08 18:29:00,
2013-01-08 13:34:00,42.3,25.5,30.27,SW,216,3.0,3.8,51,0.00,,CLR,0.00,VWS V14.00,2013-01-08 18:34:00,
2013-01-08 13:39:00,42.7,25.4,30.27,WSW,253,3.0,3.2,50,0.00,,CLR,0.00,VWS V14.00,2013-01-08 18:39:00,
2013-01-08 13:44:00,43.3,25.9,30.27,WSW,245,5.4,5.9,50,0.00,,CLR,0.00,VWS V14.00,2013-01-08 18:44:00,
2013-01-08 13:49:00,43.3,25.4,30.27,WNW,283,3.4,4.3,49,0.00,,CLR,0.00,VWS V14.00,2013-01-08 18:49:00,
2013-01-08 13:54:00,42.9,25.5,30.27,WNW,290,3.9,5.4,50,0.00,,CLR,0.00,VWS V14.00,2013-01-08 18:54:00,
2013-01-08 13:59:00,43.3,25.4,30.27,WNW,283,3.4,3.8,49,0.00,,CLR,0.00,VWS V14.00,2013-01-08 18:59:00,
2013-01-08 14:04:00,44.6,26.6,30.27,SW,233,4.4,6.4,49,0.00,,CLR,0.00,VWS V14.00,2013-01-08 19:04:00,
2013-01-08 14:09:00,44.6,26.6,30.27,WSW,240,3.9,4.3,49,0.00,,CLR,0.00,VWS V14.00,2013-01-08 19:09:00,
2013-01-08 14:14:00,44.8,26.8,30.27,West,262,3.9,4.3,49,0.00,,CLR,0.00,VWS V14.00,2013-01-08 19:14:00,
2013-01-08 14:19:00,46.0,27.0,30.27,SSW,202,4.4,4.8,47,0.00,,CLR,0.00,VWS V14.00,2013-01-08 19:19:00,
2013-01-08 14:24:00,46.8,27.1,30.27,SW,222,3.9,4.8,46,0.00,,CLR,0.00,VWS V14.00,2013-01-08 19:24:00,
2013-01-08 14:29:00,47.2,26.9,30.27,SSW,199,3.4,3.8,45,0.00,,CLR,0.00,VWS V14.00,2013-01-08 19:29:00,
2013-01-08 14:34:00,47.5,26.7,30.27,SSW,205,3.9,4.3,44,0.00,,CLR,0.00,VWS V14.00,2013-01-08 19:34:00,
2013-01-08 14:39:00,48.1,26.7,30.27,SSW,203,4.4,5.9,43,0.00,,CLR,0.00,VWS V14.00,2013-01-08 19:39:00,
2013-01-08 14:45:00,48.5,27.0,30.27,SSW,207,5.9,7.0,43,0.00,,CLR,0.00,VWS V14.00,2013-01-08 19:45:00,
2013-01-08 14:50:00,48.7,27.2,30.27,WSW,257,5.4,5.9,43,0.00,,CLR,0.00,VWS V14.00,2013-01-08 19:50:00,
2013-01-08 14:55:00,49.0,27.5,30.27,WSW,245,6.4,7.5,43,0.00,,CLR,0.00,VWS V14.00,2013-01-08 19:55:00,
2013-01-08 15:00:00,49.0,26.4,30.27,SW,216,7.4,8.1,41,0.00,,CLR,0.00,VWS V14.00,2013-01-08 20:00:00,
2013-01-08 15:05:00,49.2,26.5,30.27,SW,225,3.9,4.8,41,0.00,,CLR,0.00,VWS V14.00,2013-01-08 20:05:00,
2013-01-08 15:10:00,48.5,26.4,30.27,West,271,4.4,7.0,42,0.00,,CLR,0.00,VWS V14.00,2013-01-08 20:10:00,
2013-01-08 15:15:00,48.8,26.2,30.27,SW,229,3.9,7.0,41,0.00,,CLR,0.00,VWS V14.00,2013-01-08 20:15:00,
2013-01-08 15:20:00,49.0,25.8,30.27,WSW,242,3.9,7.0,40,0.00,,CLR,0.00,VWS V14.00,2013-01-08 20:20:00,
2013-01-08 15:25:00,49.0,25.1,30.27,SSW,204,3.4,4.8,39,0.00,,CLR,0.00,VWS V14.00,2013-01-08 20:25:00,
2013-01-08 15:30:00,49.0,25.1,30.27,SSW,201,5.9,6.4,39,0.00,,CLR,0.00,VWS V14.00,2013-01-08 20:30:00,
2013-01-08 15:35:00,48.8,25.0,30.27,SW,231,5.4,7.0,39,0.00,,CLR,0.00,VWS V14.00,2013-01-08 20:35:00,
2013-01-08 15:40:00,49.0,25.1,30.27,South,191,5.9,6.4,39,0.00,,CLR,0.00,VWS V14.00,2013-01-08 20:40:00,
2013-01-08 15:45:00,49.0,25.1,30.27,South,176,6.9,7.5,39,0.00,,CLR,0.00,VWS V14.00,2013-01-08 20:45:00,
2013-01-08 15:50:00,48.8,25.0,30.27,South,181,3.9,7.5,39,0.00,,CLR,0.00,VWS V14.00,2013-01-08 20:50:00,
2013-01-08 15:55:00,48.8,25.0,30.27,South,181,5.4,5.9,39,0.00,,CLR,0.00,VWS V14.00,2013-01-08 20:55:00,
2013-01-08 16:00:00,48.3,24.5,30.27,SW,220,5.9,9.9,39,0.00,,CLR,0.00,VWS V14.00,2013-01-08 21:00:00,
2013-01-08 16:05:00,47.9,24.2,30.27,SSW,208,3.4,4.8,39,0.00,,CLR,0.00,VWS V14.00,2013-01-08 21:05:00,
2013-01-08 16:10:00,47.7,24.0,30.27,SW,234,4.4,4.8,39,0.00,,CLR,0.00,VWS V14.00,2013-01-08 21:10:00,
2013-01-08 16:16:00,47.7,24.0,30.27,SW,220,4.4,4.8,39,0.00,,CLR,0.00,VWS V14.00,2013-01-08 21:16:00,
2013-01-08 16:21:00,47.3,23.7,30.27,SW,214,3.4,5.9,39,0.00,,CLR,0.00,VWS V14.00,2013-01-08 21:21:00,
2013-01-08 16:26:00,47.2,23.5,30.27,WSW,252,3.9,4.3,39,0.00,,CLR,0.00,VWS V14.00,2013-01-08 21:26:00,
2013-01-08 16:31:00,46.8,23.2,30.27,SW,236,3.0,4.8,39,0.00,,CLR,0.00,VWS V14.00,2013-01-08 21:31:00,
2013-01-08 16:36:00,46.4,22.8,30.27,SSW,210,3.0,4.3,39,0.00,,CLR,0.00,VWS V14.00,2013-01-08 21:36:00,
2013-01-08 16:41:00,45.9,22.3,30.27,SSW,210,3.4,5.9,39,0.00,,CLR,0.00,VWS V14.00,2013-01-08 21:41:00,
2013-01-08 16:46:00,45.5,22.0,30.27,SSW,194,5.9,7.0,39,0.00,,CLR,0.00,VWS V14.00,2013-01-08 21:46:00,
2013-01-08 16:51:00,45.1,21.7,30.27,SSW,203,5.4,7.0,39,0.00,,CLR,0.00,VWS V14.00,2013-01-08 21:51:00,
2013-01-08 16:56:00,45.1,21.7,30.27,SSW,198,3.4,3.8,39,0.00,,CLR,0.00,VWS V14.00,2013-01-08 21:56:00,
2013-01-08 17:01:00,44.6,21.8,30.27,SSW,199,3.4,4.8,40,0.00,,CLR,0.00,VWS V14.00,2013-01-08 22:01:00,
2013-01-08 17:06:00,44.4,21.6,30.27,SSE,149,4.4,5.9,40,0.00,,CLR,0.00,VWS V14.00,2013-01-08 22:06:00,
2013-01-08 17:11:00,44.0,21.3,30.27,SW,221,0.0,2.7,40,0.00,,CLR,0.00,VWS V14.00,2013-01-08 22:11:00,
2013-01-08 17:16:00,43.6,21.5,30.27,SSW,196,3.4,3.8,41,0.00,,CLR,0.00,VWS V14.00,2013-01-08 22:16:00,
2013-01-08 17:21:00,43.5,21.3,30.27,South,178,3.4,4.3,41,0.00,,CLR,0.00,VWS V14.00,2013-01-08 22:21:00,
2013-01-08 17:27:00,43.1,21.0,30.27,SSW,204,0.0,3.8,41,0.00,,CLR,0.00,VWS V14.00,2013-01-08 22:27:00,
2013-01-08 17:32:00,42.5,20.5,30.27,SSW,204,0.0,0.0,41,0.00,,CLR,0.00,VWS V14.00,2013-01-08 22:32:00,
2013-01-08 17:37:00,42.0,20.6,30.27,SSW,204,0.0,0.0,42,0.00,,CLR,0.00,VWS V14.00,2013-01-08 22:37:00,
2013-01-08 17:42:00,41.0,20.3,30.27,SSW,204,0.0,0.0,43,0.00,,CLR,0.00,VWS V14.00,2013-01-08 22:42:00,
2013-01-08 17:47:00,40.1,20.0,30.27,SSW,204,3.0,3.2,44,0.00,,CLR,0.00,VWS V14.00,2013-01-08 22:47:00,
2013-01-08 17:52:00,39.9,20.3,30.27,SSW,204,0.0,0.0,45,0.00,,CLR,0.00,VWS V14.00,2013-01-08 22:52:00,
2013-01-08 17:57:00,39.8,20.2,30.27,SSW,204,0.0,0.0,45,0.00,,CLR,0.00,VWS V14.00,2013-01-08 22:57:00,
2013-01-08 18:02:00,39.6,20.5,30.27,SSW,204,0.0,2.7,46,0.00,,CLR,0.00,VWS V14.00,2013-01-08 23:02:00,
2013-01-08 18:07:00,39.4,20.8,30.27,SSW,204,0.0,0.0,47,0.00,,CLR,0.00,VWS V14.00,2013-01-08 23:07:00,
2013-01-08 18:12:00,39.0,21.0,30.27,SSW,204,2.5,3.2,48,0.00,,CLR,0.00,VWS V14.00,2013-01-08 23:12:00,
2013-01-08 18:17:00,38.8,21.3,30.27,SSW,204,2.5,2.7,49,0.00,,CLR,0.00,VWS V14.00,2013-01-08 23:17:00,
2013-01-08 18:23:00,38.6,21.1,30.27,SSW,204,2.5,2.7,49,0.00,,CLR,0.00,VWS V14.00,2013-01-08 23:23:00,
2013-01-08 18:28:00,38.3,20.8,30.27,SSW,204,0.0,2.7,49,0.00,,CLR,0.00,VWS V14.00,2013-01-08 23:28:00,
2013-01-08 18:33:00,38.1,21.1,30.27,SSW,204,2.5,3.2,50,0.00,,CLR,0.00,VWS V14.00,2013-01-08 23:33:00,
2013-01-08 18:38:00,37.9,20.9,30.27,SSW,204,0.0,2.7,50,0.00,,CLR,0.00,VWS V14.00,2013-01-08 23:38:00,
2013-01-08 18:43:00,37.7,21.2,30.27,SE,130,3.0,3.2,51,0.00,,CLR,0.00,VWS V14.00,2013-01-08 23:43:00,
2013-01-08 18:48:00,37.2,20.7,30.29,ESE,120,3.0,3.2,51,0.00,,CLR,0.00,VWS V14.00,2013-01-08 23:48:00,
2013-01-08 18:53:00,37.0,21.0,30.29,ESE,120,3.0,3.2,52,0.00,,CLR,0.00,VWS V14.00,2013-01-08 23:53:00,
2013-01-08 18:58:00,36.8,20.8,30.29,ESE,120,2.5,3.2,52,0.00,,CLR,0.00,VWS V14.00,2013-01-08 23:58:00,
2013-01-08 19:03:00,36.4,20.5,30.29,ESE,120,0.0,0.0,52,0.00,,CLR,0.00,VWS V14.00,2013-01-09 00:03:00,
2013-01-08 19:08:00,36.4,20.5,30.29,ESE,120,2.5,2.7,52,0.00,,CLR,0.00,VWS V14.00,2013-01-09 00:08:00,
2013-01-08 19:13:00,36.4,20.5,30.29,ESE,117,0.0,2.7,52,0.00,,CLR,0.00,VWS V14.00,2013-01-09 00:13:00,
2013-01-08 19:18:00,36.2,20.3,30.27,ESE,117,0.0,0.0,52,0.00,,CLR,0.00,VWS V14.00,2013-01-09 00:18:00,
2013-01-08 19:23:00,36.2,20.3,30.27,ESE,117,0.0,0.0,52,0.00,,CLR,0.00,VWS V14.00,2013-01-09 00:23:00,
2013-01-08 19:28:00,35.8,20.0,30.27,ESE,117,0.0,0.0,52,0.00,,CLR,0.00,VWS V14.00,2013-01-09 00:28:00,
2013-01-08 19:33:00,35.5,20.1,30.27,SSE,150,3.0,3.2,53,0.00,,CLR,0.00,VWS V14.00,2013-01-09 00:33:00,
2013-01-08 19:38:00,35.1,19.7,30.27,SSE,158,0.0,0.0,53,0.00,,CLR,0.00,VWS V14.00,2013-01-09 00:38:00,
2013-01-08 19:44:00,34.7,19.4,30.27,SSE,158,0.0,0.0,53,0.00,,CLR,0.00,VWS V14.00,2013-01-09 00:44:00,
2013-01-08 19:49:00,34.6,19.2,30.29,SSE,158,0.0,0.0,53,0.00,,CLR,0.00,VWS V14.00,2013-01-09 00:49:00,
2013-01-08 19:54:00,34.6,19.2,30.29,SSE,158,2.5,3.2,53,0.00,,CLR,0.00,VWS V14.00,2013-01-09 00:54:00,
2013-01-08 19:59:00,34.0,19.1,30.29,SSE,150,3.0,3.2,54,0.00,,CLR,0.00,VWS V14.00,2013-01-09 00:59:00,
2013-01-08 20:04:00,33.3,18.9,30.29,NW,312,0.0,2.7,55,0.00,,CLR,0.00,VWS V14.00,2013-01-09 01:04:00,
2013-01-08 20:09:00,33.4,19.5,30.29,NW,312,0.0,0.0,56,0.00,,CLR,0.00,VWS V14.00,2013-01-09 01:09:00,
2013-01-08 20:14:00,32.9,19.3,30.29,NW,312,3.0,3.2,57,0.00,,CLR,0.00,VWS V14.00,2013-01-09 01:14:00,
2013-01-08 20:19:00,32.7,18.8,30.29,NW,312,0.0,2.7,56,0.00,,CLR,0.00,VWS V14.00,2013-01-09 01:19:00,
2013-01-08 20:24:00,32.7,19.2,30.29,NW,312,0.0,0.0,57,0.00,,CLR,0.00,VWS V14.00,2013-01-09 01:24:00,
2013-01-08 20:29:00,32.5,19.4,30.29,NW,312,3.0,3.2,58,0.00,,CLR,0.00,VWS V14.00,2013-01-09 01:29:00,
2013-01-08 20:34:00,32.2,19.0,30.29,NW,317,0.0,0.0,58,0.00,,CLR,0.00,VWS V14.00,2013-01-09 01:34:00,
2013-01-08 20:39:00,32.2,19.0,30.29,NW,317,0.0,0.0,58,0.00,,CLR,0.00,VWS V14.00,2013-01-09 01:39:00,
2013-01-08 20:44:00,32.2,19.5,30.29,NW,317,0.0,0.0,59,0.00,,CLR,0.00,VWS V14.00,2013-01-09 01:44:00,
2013-01-08 20:49:00,32.2,19.5,30.29,NW,317,0.0,0.0,59,0.00,,CLR,0.00,VWS V14.00,2013-01-09 01:49:00,
2013-01-08 20:54:00,32.2,19.5,30.29,NW,317,0.0,0.0,59,0.00,,CLR,0.00,VWS V14.00,2013-01-09 01:54:00,
2013-01-08 20:59:00,31.8,19.5,30.29,NW,317,0.0,0.0,60,0.00,,CLR,0.00,VWS V14.00,2013-01-09 01:59:00,
2013-01-08 21:04:00,31.4,19.1,30.29,NW,317,0.0,0.0,60,0.00,,CLR,0.00,VWS V14.00,2013-01-09 02:04:00,
2013-01-08 21:09:00,31.2,19.0,30.29,NW,317,0.0,0.0,60,0.00,,CLR,0.00,VWS V14.00,2013-01-09 02:09:00,
2013-01-08 21:14:00,31.2,19.0,30.29,NW,317,0.0,0.0,60,0.00,,CLR,0.00,VWS V14.00,2013-01-09 02:14:00,
2013-01-08 21:19:00,31.0,19.2,30.29,NW,317,0.0,0.0,61,0.00,,CLR,0.00,VWS V14.00,2013-01-09 02:19:00,
2013-01-08 21:25:00,31.0,19.5,30.29,NW,317,2.5,2.7,62,0.00,,CLR,0.00,VWS V14.00,2013-01-09 02:25:00,
2013-01-08 21:30:00,30.5,19.0,30.29,NW,317,2.5,2.7,62,0.00,,CLR,0.00,VWS V14.00,2013-01-09 02:30:00,
2013-01-08 21:35:00,30.3,19.2,30.29,NW,317,2.5,3.2,63,0.00,,CLR,0.00,VWS V14.00,2013-01-09 02:35:00,
2013-01-08 21:40:00,30.1,19.0,30.29,NW,317,0.0,0.0,63,0.00,,CLR,0.00,VWS V14.00,2013-01-09 02:40:00,
2013-01-08 21:45:00,30.1,19.0,30.29,NW,317,0.0,0.0,63,0.00,,CLR,0.00,VWS V14.00,2013-01-09 02:45:00,
2013-01-08 21:50:00,30.1,19.0,30.29,NW,317,0.0,0.0,63,0.00,,CLR,0.00,VWS V14.00,2013-01-09 02:50:00,
2013-01-08 21:55:00,29.7,18.7,30.29,NW,317,0.0,0.0,63,0.00,,CLR,0.00,VWS V14.00,2013-01-09 02:55:00,
2013-01-08 22:00:00,29.5,18.9,30.29,NW,317,0.0,0.0,64,0.00,,CLR,0.00,VWS V14.00,2013-01-09 03:00:00,
2013-01-08 22:05:00,29.4,19.1,30.29,NW,317,0.0,0.0,65,0.00,,CLR,0.00,VWS V14.00,2013-01-09 03:05:00,
2013-01-08 22:10:00,29.4,19.1,30.29,NW,317,0.0,0.0,65,0.00,,CLR,0.00,VWS V14.00,2013-01-09 03:10:00,
2013-01-08 22:15:00,29.4,19.1,30.29,NW,317,0.0,0.0,65,0.00,,CLR,0.00,VWS V14.00,2013-01-09 03:15:00,
2013-01-08 22:20:00,29.0,19.1,30.29,NW,317,0.0,0.0,66,0.00,,CLR,0.00,VWS V14.00,2013-01-09 03:20:00,
2013-01-08 22:25:00,28.8,18.9,30.29,NW,317,0.0,0.0,66,0.00,,CLR,0.00,VWS V14.00,2013-01-09 03:25:00,
2013-01-08 22:30:00,28.6,18.7,30.29,NW,317,2.5,3.2,66,0.00,,CLR,0.00,VWS V14.00,2013-01-09 03:30:00,
2013-01-08 22:36:00,28.1,19.2,30.29,NW,317,3.4,4.3,69,0.00,,CLR,0.00,VWS V14.00,2013-01-09 03:36:00,
2013-01-08 22:41:00,27.7,18.9,30.29,NW,317,0.0,0.0,69,0.00,,CLR,0.00,VWS V14.00,2013-01-09 03:41:00,
2013-01-08 22:46:00,27.7,19.2,30.29,NW,317,0.0,0.0,70,0.00,,CLR,0.00,VWS V14.00,2013-01-09 03:46:00,
2013-01-08 22:51:00,27.9,19.4,30.29,NW,317,0.0,0.0,70,0.00,,CLR,0.00,VWS V14.00,2013-01-09 03:51:00,
2013-01-08 22:56:00,27.9,19.7,30.29,North,357,3.4,3.8,71,0.00,,CLR,0.00,VWS V14.00,2013-01-09 03:56:00,
2013-01-08 23:01:00,27.9,19.7,30.29,ENE,70,3.4,3.8,71,0.00,,CLR,0.00,VWS V14.00,2013-01-09 04:01:00,
2013-01-08 23:06:00,27.9,20.0,30.29,ENE,71,2.5,3.2,72,0.00,,CLR,0.00,VWS V14.00,2013-01-09 04:06:00,
2013-01-08 23:11:00,27.9,19.7,30.29,ENE,71,2.5,2.7,71,0.00,,CLR,0.00,VWS V14.00,2013-01-09 04:11:00,
2013-01-08 23:16:00,28.1,19.9,30.29,ENE,71,0.0,0.0,71,0.00,,CLR,0.00,VWS V14.00,2013-01-09 04:16:00,
2013-01-08 23:21:00,28.1,19.9,30.29,ENE,71,0.0,0.0,71,0.00,,CLR,0.00,VWS V14.00,2013-01-09 04:21:00,
2013-01-08 23:26:00,27.9,19.7,30.29,ENE,71,0.0,0.0,71,0.00,,CLR,0.00,VWS V14.00,2013-01-09 04:26:00,
2013-01-08 23:31:00,27.5,19.0,30.29,ENE,71,0.0,0.0,70,0.00,,CLR,0.00,VWS V14.00,2013-01-09 04:31:00,
2013-01-08 23:36:00,27.3,19.2,30.32,ENE,71,0.0,0.0,71,0.00,,CLR,0.00,VWS V14.00,2013-01-09 04:36:00,
2013-01-08 23:41:00,27.5,19.4,30.32,ENE,71,0.0,0.0,71,0.00,,CLR,0.00,VWS V14.00,2013-01-09 04:41:00,
2013-01-08 23:46:00,27.3,19.2,30.32,ENE,71,0.0,2.7,71,0.00,,CLR,0.00,VWS V14.00,2013-01-09 04:46:00,
2013-01-08 23:51:00,27.3,19.2,30.32,ENE,71,2.5,2.7,71,0.00,,CLR,0.00,VWS V14.00,2013-01-09 04:51:00,
2013-01-08 23:57:00,27.3,19.5,30.32,ENE,71,0.0,0.0,72,0.00,,CLR,0.00,VWS V14.00,2013-01-09 04:57:00,